Flag for USA

Past Weather in Riverside, Ohio, USA — Yesterday and Last 2 Weeks

Now
81 °F

Sunny.


Feels Like: 80 °F
Forecast: 80 / 54 °F
Wind: 7 mph from Southeast

Location: Dayton / Wright-Patterson Air Force Base
Current Time: Sep 25, 2020 at 4:57:38 pm
Latest Report: Sep 25, 2020 at 3:56 pm
Visibility: 10 mi
Pressure29.96 "Hg
Humidity: 41%
Dew Point: 55 °F
Location of RiversideLocation

Past Weather in Riverside — Graph

°F

Riverside Temperature Yesterday

Maximum temperature yesterday: 79 °F (at 3:56 pm)
Minimum temperature yesterday: 57 °F (at 6:56 am)
Average temperature yesterday: 66 °F

High & Low Weather Summary for the Past Weeks

 TemperatureHumidityPressure
High88 °F (Sep 12, 3:22 pm)94% (Sep 13, 1:55 am)30.48 "Hg (Sep 13, 1:55 am)
Low41 °F (Sep 19, 6:56 am)17% (Sep 20, 3:56 pm)29.93 "Hg (Sep 12, 5:56 pm)
Average63 °F66%30.18 "Hg
* Reported Sep 10 3:56 pm — Sep 25 3:04 pm, Riverside. Weather by CustomWeather, © 2020

Note: Actual official high and low records may vary slightly from our data, if they occured in-between our weather recording intervals... More about our weather records

Riverside Weather History for the Previous 24 Hours

Scroll right to see more
 ConditionsComfort  
Time TempWeatherWind HumidityBarometerVisibility
3:04 pm
Fri, Sep 25
81 °FSunny.10 mph37%29.97 "Hg7 mi
2:57 pm81 °FLight rain. Sunny.8 mph37%29.97 "Hg6 mi
1:56 pm79 °FSunny.8 mph40%30.00 "Hg10 mi
12:56 pm77 °FSunny.12 mph44%30.02 "Hg10 mi
11:56 am75 °FPassing clouds.12 mph49%30.04 "Hg10 mi
10:56 am71 °FSunny.8 mph58%30.05 "Hg10 mi
9:56 am65 °FSunny.No wind70%30.05 "Hg10 mi
8:56 am58 °FSunny.No wind88%30.04 "Hg10 mi
7:56 am51 °FSunny.3 mph93%30.03 "Hg9 mi
6:56 am53 °FClear.No wind94%30.02 "Hg10 mi
5:56 am52 °FClear.No wind90%30.01 "Hg10 mi
4:56 am53 °FClear.3 mph91%30.00 "Hg10 mi
3:56 am53 °FClear.3 mph91%30.00 "Hg10 mi
2:56 am56 °FClear.No wind87%30.00 "Hg10 mi
1:56 am56 °FClear.No wind84%30.01 "Hg10 mi
12:56 am57 °FClear.No wind82%30.01 "Hg10 mi
11:56 pm
Thu, Sep 24
60 °FClear.No wind79%30.01 "Hg10 mi
10:56 pm61 °FClear.No wind74%30.01 "Hg10 mi
9:56 pm62 °FClear.No wind73%30.00 "Hg10 mi
8:56 pm67 °FClear.No wind59%29.99 "Hg10 mi
7:56 pm71 °FClear.6 mph52%29.98 "Hg10 mi
6:56 pm74 °FSunny.7 mph41%29.98 "Hg10 mi
5:56 pm78 °FSunny.No wind37%29.97 "Hg10 mi
4:56 pm78 °FSunny.7 mph38%29.97 "Hg9 mi
Weather by CustomWeather, © 2020

See weather overview